Погода в Черкесовском

Россия / Волгоградская область     50°41′08″N   42°33′56″E
темп.,
°C
ветер,
м/с
пор.,
м/с
влажн.,
%
обл.,
%
осадки,
мм/ч
давл.,
гПа
погр.,
м
28 сентября, вт
вт2800:00+8с3790100 0.0 1017192
03:00+8ссз359280 0.0 1018151
06:00+9ссв3790100 0.1 1019359
09:00+9ссв4678100 0.1 1020528
12:00+10ссв5567100 0.0 10221083
15:00+9св5576100 0.3 1023822
18:00+7св5781100 0.1 1026626
21:00+7ссв3782100 0.1 1027653
29 сентября, ср
ср2900:00+7ссв477479 0.0 1028390
03:00+7ссв476789 0.0 1029270
06:00+3ссв488439 0.0 1030175
09:00+7ссв58595 0.0 1030727
12:00+10св56445 0.0 10301453
15:00+11св56405 0.0 10291652
18:00+8ссв35545 0.0 103083
21:00+6ссв376420 0.0 1031133
30 сентября, чт
чт3000:00+4ссв34695 0.0 103261
03:00+4с33735 0.0 103244
06:00+3с34785 0.0 103363
09:00+8ссв35585 0.0 1033436
12:00+11ссв34435 0.0 10321441
15:00+12ссв344252 0.0 10321706
18:00+9ссв33575 0.0 103236
21:00+7св34655 0.0 103348
1 октября, пт
пт100:00+6св33705 0.0 103428
03:00+5св22735 0.0 103419
06:00+5ссв117092 0.0 103510
09:00+9ссв2257100 0.0 1035276
12:00+12с225089 0.0 1035928
15:00+13с434976 0.0 10341146
18:00+10с236393 0.0 103468
21:00+10с1165100 0.0 103510
2 октября, сб
сб200:00+10ссз1167100 0.0 103423
03:00+10ссз2269100 0.0 103438
06:00+10с2276100 0.0 103436
09:00+11ссв2376100 0.0 1034206
12:00+13всв2368100 0.0 1033640
15:00+14всв2359100 0.0 10331065
18:00+12в226925 0.0 103326
21:00+10всв227795 0.0 103327